Time,TemperatureF,DewpointF,PressureIn,WindDirection,WindDirectionDegrees,WindSpeedMPH,WindSpeedGustMPH,Humidity,HourlyPrecipIn,Conditions,Clouds,dailyrainin,SoftwareType,DateUTC
2013-03-03 10:56:00,73.0,67.8,30.12,ENE,63,8.3,13.6,84,0.00,,SCT,0.00,VWS V13.01,2013-03-02 23:56:00,
2013-03-03 10:58:00,73.2,68.0,30.12,SE,126,8.7,10.5,84,0.00,,SCT,0.00,VWS V13.01,2013-03-02 23:58:00,
2013-03-03 11:01:00,73.2,67.6,30.12,SE,125,10.5,14.1,83,0.00,,SCT,0.00,VWS V13.01,2013-03-03 00:01:00,
2013-03-03 11:03:00,73.2,67.6,30.12,ESE,108,14.5,14.5,83,0.00,,SCT,0.00,VWS V13.01,2013-03-03 00:03:00,
2013-03-03 11:05:00,73.2,67.6,30.12,NE,49,13.2,15.4,83,0.00,,SCT,0.00,VWS V13.01,2013-03-03 00:05:00,
2013-03-03 11:06:00,73.2,67.6,30.12,East,99,11.0,13.2,83,0.00,,SCT,0.00,VWS V13.01,2013-03-03 00:06:00,
2013-03-03 11:08:00,73.2,67.6,30.12,SE,133,7.2,10.5,83,0.00,,SCT,0.00,VWS V13.01,2013-03-03 00:08:00,
2013-03-03 11:10:00,73.4,67.4,30.12,ESE,118,10.5,11.0,82,0.00,,SCT,0.00,VWS V13.01,2013-03-03 00:10:00,
2013-03-03 11:13:00,73.4,67.4,30.12,East,100,6.3,12.3,82,0.00,,SCT,0.00,VWS V13.01,2013-03-03 00:13:00,
2013-03-03 11:15:00,73.4,67.4,30.12,East,84,10.5,12.8,82,0.00,,SCT,0.00,VWS V13.01,2013-03-03 00:15:00,
2013-03-03 11:19:00,73.4,67.4,30.12,East,93,11.9,14.1,82,0.00,,SCT,0.00,VWS V13.01,2013-03-03 00:19:00,
2013-03-03 11:22:00,73.6,67.6,30.12,East,81,10.5,15.4,82,0.00,,SCT,0.00,VWS V13.01,2013-03-03 00:22:00,
2013-03-03 11:24:00,73.6,67.6,30.12,ENE,78,6.7,8.3,82,0.00,,SCT,0.00,VWS V13.01,2013-03-03 00:24:00,
2013-03-03 11:31:00,73.8,67.8,30.12,East,91,8.1,14.5,82,0.00,,SCT,0.00,VWS V13.01,2013-03-03 00:31:00,
2013-03-03 11:32:00,73.8,67.8,30.12,ENE,64,15.0,15.0,82,0.00,,SCT,0.00,VWS V13.01,2013-03-03 00:32:00,
2013-03-03 11:38:00,73.8,67.8,30.12,East,82,5.4,8.1,82,0.00,,SCT,0.00,VWS V13.01,2013-03-03 00:38:00,
2013-03-03 11:53:00,73.8,67.4,30.12,ESE,103,15.0,15.0,80,0.00,,SCT,0.00,VWS V13.01,2013-03-03 00:53:00,
2013-03-03 11:54:00,73.8,67.4,30.12,ESE,102,10.5,15.0,80,0.00,,SCT,0.00,VWS V13.01,2013-03-03 00:54:00,
2013-03-03 12:00:00,73.8,67.4,30.12,ESE,108,8.3,11.0,80,0.00,,SCT,0.00,VWS V13.01,2013-03-03 01:00:00,
2013-03-03 12:01:00,73.8,67.4,30.09,East,89,11.0,13.2,80,0.00,,SCT,0.00,VWS V13.01,2013-03-03 01:01:00,
2013-03-03 12:02:00,73.8,67.4,30.09,ESE,116,5.8,11.0,80,0.00,,SCT,0.00,VWS V13.01,2013-03-03 01:02:00,
2013-03-03 12:13:00,73.9,67.2,30.09,ESE,119,12.3,17.4,79,0.00,,SCT,0.00,VWS V13.01,2013-03-03 01:13:00,
2013-03-03 12:14:00,73.9,67.2,30.09,East,92,12.3,12.3,79,0.00,,SCT,0.00,VWS V13.01,2013-03-03 01:14:00,
2013-03-03 12:18:00,74.1,67.3,30.09,East,82,11.9,11.9,79,0.00,,SCT,0.00,VWS V13.01,2013-03-03 01:18:00,
2013-03-03 12:19:00,74.1,67.3,30.09,East,95,11.0,11.9,79,0.00,,SCT,0.00,VWS V13.01,2013-03-03 01:19:00,
2013-03-03 12:20:00,74.1,67.3,30.09,East,100,8.3,11.0,79,0.00,,SCT,0.00,VWS V13.01,2013-03-03 01:20:00,
2013-03-03 12:24:00,74.5,67.7,30.09,East,90,6.3,11.0,79,0.00,,SCT,0.00,VWS V13.01,2013-03-03 01:24:00,
2013-03-03 12:25:00,74.5,67.7,30.09,NE,51,7.6,10.1,79,0.00,,SCT,0.00,VWS V13.01,2013-03-03 01:25:00,
2013-03-03 12:27:00,74.5,67.7,30.09,ESE,118,7.2,10.5,79,0.00,,SCT,0.00,VWS V13.01,2013-03-03 01:27:00,
2013-03-03 12:28:00,74.5,67.7,30.09,ENE,77,5.8,8.7,79,0.00,,SCT,0.00,VWS V13.01,2013-03-03 01:28:00,
2013-03-03 12:30:00,74.5,67.7,30.09,ESE,105,5.4,9.6,79,0.00,,SCT,0.00,VWS V13.01,2013-03-03 01:30:00,
2013-03-03 12:33:00,74.5,67.7,30.09,ESE,111,10.5,15.4,79,0.00,,SCT,0.00,VWS V13.01,2013-03-03 01:33:00,
2013-03-03 12:34:00,74.5,67.3,30.09,East,87,5.4,13.6,78,0.00,,SCT,0.00,VWS V13.01,2013-03-03 01:34:00,
2013-03-03 12:36:00,74.3,67.1,30.09,East,88,10.5,13.2,78,0.00,,SCT,0.00,VWS V13.01,2013-03-03 01:36:00,
2013-03-03 12:39:00,74.1,67.0,30.09,North,0,6.3,11.0,78,0.00,,SCT,0.00,VWS V13.01,2013-03-03 01:39:00,
2013-03-03 12:49:00,73.4,67.4,30.09,SE,143,9.2,14.1,82,0.00,,SCT,0.00,VWS V13.01,2013-03-03 01:49:00,
2013-03-03 12:51:00,73.4,67.8,30.09,East,100,6.3,6.3,83,0.00,,SCT,0.00,VWS V13.01,2013-03-03 01:51:00,
2013-03-03 12:52:00,73.2,67.6,30.09,East,86,6.3,6.3,83,0.00,,SCT,0.00,VWS V13.01,2013-03-03 01:52:00,
2013-03-03 12:57:00,73.0,67.8,30.09,ESE,118,8.7,13.2,84,0.00,,SCT,0.00,VWS V13.01,2013-03-03 01:57:00,
2013-03-03 12:58:00,73.0,67.8,30.09,ENE,67,8.3,11.0,84,0.00,,SCT,0.00,VWS V13.01,2013-03-03 01:58:00,
2013-03-03 13:00:00,72.9,67.6,30.09,East,96,5.8,10.5,84,0.00,,SCT,0.00,VWS V13.01,2013-03-03 02:00:00,
2013-03-03 13:03:00,72.9,68.0,30.09,SE,129,8.7,10.1,85,0.00,,SCT,0.00,VWS V13.01,2013-03-03 02:03:00,
2013-03-03 13:04:00,72.9,68.0,30.09,ESE,115,10.1,12.8,85,0.00,,SCT,0.00,VWS V13.01,2013-03-03 02:04:00,
2013-03-03 13:09:00,73.0,68.2,30.09,East,92,10.1,13.2,85,0.00,,SCT,0.00,VWS V13.01,2013-03-03 02:09:00,
2013-03-03 13:10:00,73.0,68.2,30.09,ENE,73,10.1,11.0,85,0.00,,SCT,0.00,VWS V13.01,2013-03-03 02:10:00,
2013-03-03 13:12:00,72.9,68.0,30.09,East,88,9.2,11.0,85,0.00,,SCT,0.00,VWS V13.01,2013-03-03 02:12:00,
2013-03-03 13:15:00,72.9,68.3,30.09,East,90,5.8,8.7,86,0.00,,SCT,0.00,VWS V13.01,2013-03-03 02:15:00,
2013-03-03 13:16:00,72.7,68.2,30.09,East,92,9.6,11.0,86,0.00,,SCT,0.00,VWS V13.01,2013-03-03 02:16:00,
2013-03-03 13:18:00,72.7,68.2,30.09,ENE,71,9.6,9.6,86,0.00,,SCT,0.00,VWS V13.01,2013-03-03 02:18:00,
2013-03-03 13:20:00,72.7,68.5,30.09,East,99,7.6,10.5,87,0.00,,SCT,0.00,VWS V13.01,2013-03-03 02:20:00,
2013-03-03 13:28:00,72.9,68.7,30.09,East,84,10.5,15.0,87,0.00,,SCT,0.00,VWS V13.01,2013-03-03 02:28:00,
2013-03-03 13:29:00,72.9,68.7,30.09,ENE,71,8.7,10.5,87,0.00,,SCT,0.00,VWS V13.01,2013-03-03 02:29:00,
2013-03-03 14:58:00,72.7,67.1,30.09,ENE,60,12.8,16.3,83,0.00,,SCT,0.00,VWS V13.01,2013-03-03 03:58:00,
2013-03-03 15:01:00,72.5,67.6,30.09,East,98,11.4,11.4,85,0.04,,SCT,0.04,VWS V13.01,2013-03-03 04:01:00,
2013-03-03 15:04:00,72.0,67.1,30.09,NE,54,5.4,8.1,85,0.04,,SCT,0.04,VWS V13.01,2013-03-03 04:04:00,
2013-03-03 15:05:00,71.8,67.3,30.09,ENE,65,10.5,10.5,86,0.04,,SCT,0.04,VWS V13.01,2013-03-03 04:05:00,
2013-03-03 15:06:00,71.6,67.1,30.09,NNE,31,3.1,17.0,86,0.07,,SCT,0.07,VWS V13.01,2013-03-03 04:06:00,
2013-03-03 15:11:00,70.9,67.4,30.09,East,91,12.3,15.4,89,0.11,,SCT,0.11,VWS V13.01,2013-03-03 04:11:00,
2013-03-03 15:12:00,70.7,67.2,30.09,ESE,118,6.3,12.8,89,0.11,,SCT,0.11,VWS V13.01,2013-03-03 04:12:00,
2013-03-03 15:13:00,70.5,67.4,30.09,East,80,7.6,10.5,90,0.19,,SCT,0.19,VWS V13.01,2013-03-03 04:13:00,
2013-03-03 15:36:00,69.8,68.3,30.06,East,80,6.3,10.1,95,0.19,,SCT,0.19,VWS V13.01,2013-03-03 04:36:00,
2013-03-03 15:42:00,70.0,69.2,30.06,SE,131,5.4,11.9,97,0.19,,SCT,0.19,VWS V13.01,2013-03-03 04:42:00,
2013-03-03 15:43:00,70.0,69.2,30.06,ESE,114,5.8,8.3,97,0.19,,SCT,0.19,VWS V13.01,2013-03-03 04:43:00,
2013-03-03 15:44:00,70.0,69.2,30.06,SE,132,7.6,8.1,97,0.19,,SCT,0.19,VWS V13.01,2013-03-03 04:44:00,
2013-03-03 15:45:00,70.2,69.3,30.06,SE,128,4.0,7.6,97,0.19,,SCT,0.19,VWS V13.01,2013-03-03 04:45:00,
2013-03-03 15:49:00,70.3,69.5,30.06,SE,126,7.6,10.5,97,0.19,,SCT,0.19,VWS V13.01,2013-03-03 04:49:00,
2013-03-03 15:50:00,70.3,69.8,30.06,ESE,106,8.1,8.7,98,0.19,,SCT,0.19,VWS V13.01,2013-03-03 04:50:00,
2013-03-03 15:54:00,70.5,70.0,30.06,East,100,6.3,7.2,98,0.19,,SCT,0.19,VWS V13.01,2013-03-03 04:54:00,
2013-03-03 15:56:00,70.7,70.2,30.06,ESE,106,5.8,10.1,98,0.19,,SCT,0.19,VWS V13.01,2013-03-03 04:56:00,
2013-03-03 15:59:00,70.9,70.4,30.06,SE,133,8.3,8.3,98,0.19,,SCT,0.19,VWS V13.01,2013-03-03 04:59:00,
2013-03-03 16:00:00,71.1,70.6,30.06,SE,128,8.3,10.5,98,0.19,,SCT,0.19,VWS V13.01,2013-03-03 05:00:00,
2013-03-03 16:02:00,71.2,70.7,30.06,ENE,76,8.1,10.5,98,0.15,,SCT,0.19,VWS V13.01,2013-03-03 05:02:00,
2013-03-03 16:07:00,71.4,70.6,30.06,ESE,122,9.2,12.8,97,0.11,,SCT,0.19,VWS V13.01,2013-03-03 05:07:00,
2013-03-03 16:08:00,71.4,70.6,30.06,NE,41,8.1,9.2,97,0.11,,SCT,0.19,VWS V13.01,2013-03-03 05:08:00,
2013-03-03 16:09:00,71.4,70.6,30.06,SE,133,8.3,10.1,97,0.11,,SCT,0.19,VWS V13.01,2013-03-03 05:09:00,
2013-03-03 16:14:00,71.6,70.1,30.06,East,82,6.3,11.0,95,0.00,,SCT,0.19,VWS V13.01,2013-03-03 05:14:00,
2013-03-03 16:15:00,71.8,70.3,30.06,ENE,76,5.4,6.3,95,0.00,,SCT,0.19,VWS V13.01,2013-03-03 05:15:00,
2013-03-03 16:16:00,71.8,70.0,30.06,ESE,113,5.8,8.7,94,0.00,,SCT,0.19,VWS V13.01,2013-03-03 05:16:00,
2013-03-03 16:17:00,71.8,70.0,30.06,ESE,106,5.4,11.0,94,0.00,,SCT,0.19,VWS V13.01,2013-03-03 05:17:00,
2013-03-03 16:20:00,71.8,70.0,30.06,NE,50,4.0,10.1,94,0.00,,SCT,0.19,VWS V13.01,2013-03-03 05:20:00,
2013-03-03 16:23:00,72.0,69.8,30.06,ESE,113,6.3,10.5,93,0.00,,SCT,0.19,VWS V13.01,2013-03-03 05:23:00,
2013-03-03 16:26:00,71.8,69.7,30.06,ESE,116,5.4,5.8,93,0.00,,SCT,0.19,VWS V13.01,2013-03-03 05:26:00,
2013-03-03 16:29:00,71.8,69.3,30.06,ESE,122,5.8,8.3,92,0.00,,SCT,0.19,VWS V13.01,2013-03-03 05:29:00,
2013-03-03 16:32:00,71.8,69.3,30.06,SE,128,13.6,13.6,92,0.00,,SCT,0.19,VWS V13.01,2013-03-03 05:32:00,
2013-03-03 16:35:00,71.8,69.0,30.06,ESE,109,10.5,10.5,91,0.00,,SCT,0.19,VWS V13.01,2013-03-03 05:35:00,
2013-03-03 16:36:00,71.8,69.0,30.06,ESE,122,8.1,15.0,91,0.00,,SCT,0.19,VWS V13.01,2013-03-03 05:36:00,
2013-03-03 16:38:00,71.8,69.0,30.06,East,86,3.1,7.6,91,0.00,,SCT,0.19,VWS V13.01,2013-03-03 05:38:00,
2013-03-03 16:41:00,71.8,68.7,30.06,East,100,8.1,8.7,90,0.00,,SCT,0.19,VWS V13.01,2013-03-03 05:41:00,
2013-03-03 16:44:00,71.8,68.7,30.06,East,99,6.3,11.0,90,0.00,,SCT,0.19,VWS V13.01,2013-03-03 05:44:00,
2013-03-03 16:46:00,71.8,68.7,30.06,East,87,8.1,8.1,90,0.00,,SCT,0.19,VWS V13.01,2013-03-03 05:46:00,
2013-03-03 16:50:00,71.8,68.7,30.06,ESE,104,12.3,12.3,90,0.00,,SCT,0.19,VWS V13.01,2013-03-03 05:50:00,
2013-03-03 16:51:00,71.8,68.7,30.06,ESE,104,7.2,14.1,90,0.00,,SCT,0.19,VWS V13.01,2013-03-03 05:51:00,
2013-03-03 16:54:00,71.8,68.7,30.06,ESE,103,6.3,6.3,90,0.00,,SCT,0.19,VWS V13.01,2013-03-03 05:54:00,
2013-03-03 16:58:00,71.8,68.7,30.06,East,86,8.7,10.1,90,0.00,,SCT,0.19,VWS V13.01,2013-03-03 05:58:00,
2013-03-03 16:59:00,71.8,68.7,30.06,ESE,105,8.7,10.5,90,0.00,,SCT,0.19,VWS V13.01,2013-03-03 05:59:00,
2013-03-03 17:00:00,71.8,68.7,30.06,ESE,105,11.0,11.0,90,0.00,,SCT,0.19,VWS V13.01,2013-03-03 06:00:00,
2013-03-03 17:03:00,71.8,68.7,30.06,East,89,11.0,11.0,90,0.00,,SCT,0.19,VWS V13.01,2013-03-03 06:03:00,
2013-03-03 17:05:00,71.8,68.7,30.06,ESE,111,4.0,8.7,90,0.00,,SCT,0.19,VWS V13.01,2013-03-03 06:05:00,
2013-03-03 17:08:00,71.8,68.3,30.06,ENE,78,5.8,10.5,89,0.00,,SCT,0.19,VWS V13.01,2013-03-03 06:08:00,
2013-03-03 17:10:00,71.8,68.3,30.06,SE,139,7.6,7.6,89,0.00,,SCT,0.19,VWS V13.01,2013-03-03 06:10:00,
2013-03-03 17:12:00,71.8,68.3,30.06,ENE,77,3.1,8.1,89,0.00,,SCT,0.19,VWS V13.01,2013-03-03 06:12:00,
2013-03-03 17:13:00,71.8,68.3,30.06,ESE,117,5.4,6.3,89,0.00,,SCT,0.19,VWS V13.01,2013-03-03 06:13:00,
2013-03-03 17:15:00,71.8,68.3,30.06,East,93,4.5,8.3,89,0.00,,SCT,0.19,VWS V13.01,2013-03-03 06:15:00,
2013-03-03 17:17:00,71.8,68.3,30.06,East,98,5.8,8.7,89,0.00,,SCT,0.19,VWS V13.01,2013-03-03 06:17:00,
2013-03-03 17:19:00,71.8,68.3,30.06,SSE,151,3.6,8.3,89,0.00,,SCT,0.19,VWS V13.01,2013-03-03 06:19:00,
2013-03-03 17:20:00,71.8,68.3,30.06,SE,141,4.9,7.6,89,0.00,,SCT,0.19,VWS V13.01,2013-03-03 06:20:00,
2013-03-03 17:21:00,71.8,68.3,30.06,ESE,120,5.8,5.8,89,0.00,,SCT,0.19,VWS V13.01,2013-03-03 06:21:00,
2013-03-03 17:23:00,71.6,68.1,30.06,East,82,8.1,14.1,89,0.00,,SCT,0.19,VWS V13.01,2013-03-03 06:23:00,
2013-03-03 17:25:00,71.6,68.1,30.06,ESE,117,5.4,8.7,89,0.00,,SCT,0.19,VWS V13.01,2013-03-03 06:25:00,
2013-03-03 17:27:00,71.6,68.1,30.06,East,90,5.8,11.9,89,0.00,,SCT,0.19,VWS V13.01,2013-03-03 06:27:00,
2013-03-03 17:28:00,71.6,68.1,30.06,SE,124,8.3,11.0,89,0.00,,SCT,0.19,VWS V13.01,2013-03-03 06:28:00,
2013-03-03 17:30:00,71.6,68.1,30.06,East,86,10.5,11.0,89,0.00,,SCT,0.19,VWS V13.01,2013-03-03 06:30:00,
2013-03-03 17:32:00,71.6,68.1,30.06,ESE,103,13.2,13.2,89,0.00,,SCT,0.19,VWS V13.01,2013-03-03 06:32:00,
2013-03-03 17:33:00,71.6,67.8,30.06,SE,138,10.5,13.2,88,0.00,,SCT,0.19,VWS V13.01,2013-03-03 06:33:00,
2013-03-03 17:37:00,71.6,67.8,30.06,East,89,8.1,10.5,88,0.00,,SCT,0.19,VWS V13.01,2013-03-03 06:37:00,
2013-03-03 17:40:00,71.6,67.8,30.06,South,172,11.0,11.0,88,0.00,,SCT,0.19,VWS V13.01,2013-03-03 06:40:00,
2013-03-03 17:42:00,71.4,68.0,30.06,ESE,103,11.0,11.0,89,0.00,,SCT,0.19,VWS V13.01,2013-03-03 06:42:00,
2013-03-03 17:43:00,71.4,68.0,30.06,ESE,108,9.2,13.2,89,0.00,,SCT,0.19,VWS V13.01,2013-03-03 06:43:00,
2013-03-03 17:48:00,71.4,68.0,30.06,East,93,5.4,8.3,89,0.00,,SCT,0.19,VWS V13.01,2013-03-03 06:48:00,
2013-03-03 17:50:00,71.4,68.0,30.06,ESE,102,7.6,11.0,89,0.00,,SCT,0.19,VWS V13.01,2013-03-03 06:50:00,
2013-03-03 17:51:00,71.4,67.6,30.06,ENE,72,10.5,13.2,88,0.00,,SCT,0.19,VWS V13.01,2013-03-03 06:51:00,
2013-03-03 17:55:00,71.4,67.6,30.06,South,174,10.5,10.5,88,0.00,,SCT,0.19,VWS V13.01,2013-03-03 06:55:00,
2013-03-03 17:56:00,71.4,67.6,30.06,East,95,12.8,12.8,88,0.00,,SCT,0.19,VWS V13.01,2013-03-03 06:56:00,
2013-03-03 17:59:00,71.2,67.4,30.06,East,79,4.9,9.6,88,0.00,,SCT,0.19,VWS V13.01,2013-03-03 06:59:00,
2013-03-03 18:01:00,71.2,67.4,30.06,East,91,8.1,9.6,88,0.00,,SCT,0.19,VWS V13.01,2013-03-03 07:01:00,
2013-03-03 18:02:00,71.2,67.4,30.06,SE,125,5.4,8.3,88,0.00,,SCT,0.19,VWS V13.01,2013-03-03 07:02:00,
2013-03-03 18:07:00,71.2,67.4,30.06,ESE,117,5.8,11.0,88,0.00,,SCT,0.19,VWS V13.01,2013-03-03 07:07:00,
2013-03-03 18:09:00,71.2,67.4,30.06,ESE,104,9.6,11.9,88,0.00,,SCT,0.19,VWS V13.01,2013-03-03 07:09:00,
2013-03-03 18:10:00,71.2,67.4,30.06,ESE,111,10.1,10.1,88,0.00,,SCT,0.19,VWS V13.01,2013-03-03 07:10:00,
2013-03-03 18:11:00,71.2,67.4,30.06,ESE,115,8.3,10.1,88,0.00,,SCT,0.19,VWS V13.01,2013-03-03 07:11:00,
2013-03-03 18:16:00,71.2,67.4,30.06,ENE,60,8.1,10.1,88,0.00,,SCT,0.19,VWS V13.01,2013-03-03 07:16:00,
2013-03-03 18:20:00,71.2,67.4,30.06,ENE,74,5.4,8.7,88,0.00,,SCT,0.19,VWS V13.01,2013-03-03 07:20:00,
2013-03-03 18:21:00,71.2,67.4,30.06,ESE,117,3.6,5.8,88,0.00,,SCT,0.19,VWS V13.01,2013-03-03 07:21:00,
2013-03-03 19:51:00,70.3,66.9,30.09,East,92,6.3,6.3,89,0.00,,SCT,0.19,VWS V13.01,2013-03-03 08:51:00,
2013-03-03 19:56:00,70.3,66.9,30.09,East,98,12.3,12.3,89,0.00,,SCT,0.19,VWS V13.01,2013-03-03 08:56:00,
2013-03-03 19:57:00,70.3,66.9,30.09,ESE,122,7.6,12.3,89,0.00,,SCT,0.19,VWS V13.01,2013-03-03 08:57:00,
2013-03-03 20:00:00,70.3,66.9,30.09,ESE,123,6.3,8.3,89,0.00,,SCT,0.19,VWS V13.01,2013-03-03 09:00:00,
2013-03-03 20:01:00,70.3,66.9,30.09,SE,128,6.7,7.6,89,0.00,,SCT,0.19,VWS V13.01,2013-03-03 09:01:00,
2013-03-03 20:02:00,70.3,66.9,30.09,East,95,5.8,6.7,89,0.00,,SCT,0.19,VWS V13.01,2013-03-03 09:02:00,
2013-03-03 20:06:00,70.3,66.9,30.09,ESE,102,5.8,11.4,89,0.00,,SCT,0.19,VWS V13.01,2013-03-03 09:06:00,
2013-03-03 20:08:00,70.3,66.9,30.09,SE,125,12.8,12.8,89,0.00,,SCT,0.19,VWS V13.01,2013-03-03 09:08:00,
2013-03-03 20:10:00,70.3,66.9,30.09,ESE,115,11.0,13.2,89,0.00,,SCT,0.19,VWS V13.01,2013-03-03 09:10:00,
2013-03-03 20:11:00,70.3,66.9,30.09,SE,130,8.3,12.8,89,0.00,,SCT,0.19,VWS V13.01,2013-03-03 09:11:00,
2013-03-03 20:15:00,70.3,66.6,30.06,East,90,7.6,8.3,88,0.00,,SCT,0.19,VWS V13.01,2013-03-03 09:15:00,
2013-03-03 20:16:00,70.3,66.6,30.06,ESE,102,8.1,10.1,88,0.00,,SCT,0.19,VWS V13.01,2013-03-03 09:16:00,
2013-03-03 20:21:00,70.5,66.7,30.06,ESE,123,11.0,11.0,88,0.00,,SCT,0.19,VWS V13.01,2013-03-03 09:21:00,
2013-03-03 20:22:00,70.5,66.7,30.06,ESE,112,8.3,11.0,88,0.00,,SCT,0.19,VWS V13.01,2013-03-03 09:22:00,
2013-03-03 20:25:00,70.5,66.7,30.06,ESE,111,10.5,12.8,88,0.00,,SCT,0.19,VWS V13.01,2013-03-03 09:25:00,
2013-03-03 20:27:00,70.5,66.7,30.06,ESE,116,7.6,9.2,88,0.00,,SCT,0.19,VWS V13.01,2013-03-03 09:27:00,
2013-03-03 20:30:00,70.3,66.6,30.09,ESE,110,6.3,8.7,88,0.00,,SCT,0.19,VWS V13.01,2013-03-03 09:30:00,
2013-03-03 20:32:00,70.3,66.6,30.09,East,92,9.6,10.5,88,0.00,,SCT,0.19,VWS V13.01,2013-03-03 09:32:00,
2013-03-03 20:37:00,70.3,66.9,30.09,ESE,112,11.0,11.0,89,0.00,,SCT,0.19,VWS V13.01,2013-03-03 09:37:00,
2013-03-03 20:40:00,70.3,66.9,30.09,East,91,7.6,11.0,89,0.00,,SCT,0.19,VWS V13.01,2013-03-03 09:40:00,
2013-03-03 20:41:00,70.3,66.9,30.09,ESE,111,8.7,12.3,89,0.00,,SCT,0.19,VWS V13.01,2013-03-03 09:41:00,
2013-03-03 20:45:00,70.3,66.9,30.09,SE,137,5.8,8.3,89,0.00,,SCT,0.19,VWS V13.01,2013-03-03 09:45:00,
2013-03-03 20:47:00,70.3,66.9,30.09,East,82,7.6,11.9,89,0.00,,SCT,0.19,VWS V13.01,2013-03-03 09:47:00,
2013-03-03 20:48:00,70.3,66.9,30.09,ENE,70,7.6,9.6,89,0.00,,SCT,0.19,VWS V13.01,2013-03-03 09:48:00,
2013-03-03 20:50:00,70.3,66.9,30.09,ESE,118,8.7,10.5,89,0.00,,SCT,0.19,VWS V13.01,2013-03-03 09:50:00,
2013-03-03 20:53:00,70.3,66.9,30.09,SE,126,8.3,10.5,89,0.00,,SCT,0.19,VWS V13.01,2013-03-03 09:53:00,
2013-03-03 20:55:00,70.3,66.9,30.09,ESE,111,6.3,8.1,89,0.00,,SCT,0.19,VWS V13.01,2013-03-03 09:55:00,
2013-03-03 20:58:00,70.3,66.9,30.09,ESE,111,4.0,8.1,89,0.00,,SCT,0.19,VWS V13.01,2013-03-03 09:58:00,
2013-03-03 20:59:00,70.3,66.9,30.09,East,89,4.0,6.3,89,0.00,,SCT,0.19,VWS V13.01,2013-03-03 09:59:00,
2013-03-03 21:00:00,70.3,66.9,30.09,SE,125,13.2,13.2,89,0.00,,SCT,0.19,VWS V13.01,2013-03-03 10:00:00,
2013-03-03 21:02:00,70.3,66.9,30.09,ESE,116,6.3,8.1,89,0.00,,SCT,0.19,VWS V13.01,2013-03-03 10:02:00,
2013-03-03 21:03:00,70.3,66.9,30.09,East,91,7.6,11.0,89,0.00,,SCT,0.19,VWS V13.01,2013-03-03 10:03:00,
2013-03-03 21:05:00,70.3,66.9,30.09,ESE,119,7.6,12.3,89,0.00,,SCT,0.19,VWS V13.01,2013-03-03 10:05:00,
2013-03-03 21:09:00,70.3,66.9,30.09,ESE,117,8.7,11.0,89,0.00,,SCT,0.19,VWS V13.01,2013-03-03 10:09:00,
2013-03-03 21:10:00,70.3,66.9,30.09,East,96,7.6,8.7,89,0.00,,SCT,0.19,VWS V13.01,2013-03-03 10:10:00,
2013-03-03 21:11:00,70.3,66.9,30.09,East,90,8.1,8.7,89,0.00,,SCT,0.19,VWS V13.01,2013-03-03 10:11:00,
2013-03-03 21:13:00,70.3,66.9,30.09,ENE,61,6.3,10.1,89,0.00,,SCT,0.19,VWS V13.01,2013-03-03 10:13:00,
2013-03-03 21:15:00,70.3,66.9,30.09,East,101,11.0,11.0,89,0.00,,SCT,0.19,VWS V13.01,2013-03-03 10:15:00,
2013-03-03 21:16:00,70.3,66.9,30.09,East,87,7.6,11.0,89,0.00,,SCT,0.19,VWS V13.01,2013-03-03 10:16:00,
2013-03-03 21:21:00,70.3,66.9,30.09,SSE,166,5.8,11.0,89,0.00,,SCT,0.19,VWS V13.01,2013-03-03 10:21:00,
2013-03-03 21:26:00,70.3,66.9,30.09,ESE,104,3.6,5.8,89,0.00,,SCT,0.19,VWS V13.01,2013-03-03 10:26:00,
2013-03-03 21:27:00,70.3,66.9,30.09,ESE,105,7.6,8.1,89,0.00,,SCT,0.19,VWS V13.01,2013-03-03 10:27:00,
2013-03-03 21:28:00,70.3,66.9,30.09,ESE,103,5.4,8.3,89,0.00,,SCT,0.19,VWS V13.01,2013-03-03 10:28:00,
2013-03-03 21:33:00,70.3,66.9,30.09,ESE,110,5.8,12.8,89,0.00,,SCT,0.19,VWS V13.01,2013-03-03 10:33:00,
2013-03-03 21:34:00,70.3,66.9,30.09,East,87,4.9,8.1,89,0.00,,SCT,0.19,VWS V13.01,2013-03-03 10:34:00,
2013-03-03 21:35:00,70.3,66.9,30.09,East,82,5.4,6.3,89,0.00,,SCT,0.19,VWS V13.01,2013-03-03 10:35:00,
2013-03-03 21:39:00,70.3,66.9,30.09,SE,125,3.6,7.6,89,0.00,,SCT,0.19,VWS V13.01,2013-03-03 10:39:00,
2013-03-03 21:40:00,70.3,66.9,30.09,East,101,6.3,6.3,89,0.00,,SCT,0.19,VWS V13.01,2013-03-03 10:40:00,
2013-03-03 21:41:00,70.3,66.9,30.09,East,86,3.6,6.3,89,0.00,,SCT,0.19,VWS V13.01,2013-03-03 10:41:00,
2013-03-03 21:45:00,70.3,66.9,30.09,ESE,113,5.8,8.3,89,0.00,,SCT,0.19,VWS V13.01,2013-03-03 10:45:00,
2013-03-03 21:46:00,70.3,66.9,30.09,East,94,5.4,7.2,89,0.00,,SCT,0.19,VWS V13.01,2013-03-03 10:46:00,
2013-03-03 21:48:00,70.3,66.9,30.09,East,89,4.0,5.8,89,0.00,,SCT,0.19,VWS V13.01,2013-03-03 10:48:00,
2013-03-03 21:50:00,70.3,66.9,30.09,ESE,109,5.8,11.0,89,0.00,,SCT,0.19,VWS V13.01,2013-03-03 10:50:00,
2013-03-03 21:53:00,70.3,66.9,30.09,ESE,122,6.3,8.3,89,0.00,,SCT,0.19,VWS V13.01,2013-03-03 10:53:00,
2013-03-03 21:57:00,70.3,66.9,30.09,East,86,5.8,11.0,89,0.00,,SCT,0.19,VWS V13.01,2013-03-03 10:57:00,
2013-03-03 22:08:00,70.3,66.6,30.09,ESE,103,5.4,6.3,88,0.00,,SCT,0.19,VWS V13.01,2013-03-03 11:08:00,
2013-03-03 22:09:00,70.3,66.6,30.09,East,82,6.3,7.6,88,0.00,,SCT,0.19,VWS V13.01,2013-03-03 11:09:00,
2013-03-03 22:10:00,70.3,66.6,30.09,ESE,114,5.4,6.3,88,0.00,,SCT,0.19,VWS V13.01,2013-03-03 11:10:00,
2013-03-03 22:12:00,70.3,66.6,30.09,East,95,3.6,8.3,88,0.00,,SCT,0.19,VWS V13.01,2013-03-03 11:12:00,
2013-03-03 22:15:00,70.3,66.6,30.09,East,90,6.3,6.3,88,0.00,,SCT,0.19,VWS V13.01,2013-03-03 11:15:00,
2013-03-03 22:16:00,70.3,66.6,30.09,East,98,3.6,7.6,88,0.00,,SCT,0.19,VWS V13.01,2013-03-03 11:16:00,
2013-03-03 22:17:00,70.3,66.6,30.09,ESE,105,8.1,8.1,88,0.00,,SCT,0.19,VWS V13.01,2013-03-03 11:17:00,
2013-03-03 22:20:00,70.3,66.6,30.09,ESE,109,8.3,8.3,88,0.00,,SCT,0.19,VWS V13.01,2013-03-03 11:20:00,
2013-03-03 22:21:00,70.3,66.6,30.09,SE,124,5.4,8.3,88,0.00,,SCT,0.19,VWS V13.01,2013-03-03 11:21:00,
2013-03-03 22:23:00,70.3,66.6,30.09,East,89,4.0,5.4,88,0.00,,SCT,0.19,VWS V13.01,2013-03-03 11:23:00,
2013-03-03 22:25:00,70.3,66.6,30.09,ENE,69,3.1,5.4,88,0.00,,SCT,0.19,VWS V13.01,2013-03-03 11:25:00,
2013-03-03 22:30:00,70.3,66.6,30.09,East,87,8.3,8.3,88,0.00,,SCT,0.19,VWS V13.01,2013-03-03 11:30:00,
2013-03-03 23:15:00,70.0,66.6,30.09,East,88,3.1,8.7,89,0.00,,SCT,0.19,VWS V13.01,2013-03-03 12:15:00,
2013-03-03 23:17:00,70.0,66.6,30.09,East,86,2.7,4.9,89,0.00,,SCT,0.19,VWS V13.01,2013-03-03 12:17:00,
2013-03-03 23:18:00,70.0,66.6,30.09,ENE,64,0.0,3.1,89,0.00,,SCT,0.19,VWS V13.01,2013-03-03 12:18:00,
2013-03-03 23:20:00,70.0,66.6,30.09,ENE,60,3.6,4.0,89,0.00,,SCT,0.19,VWS V13.01,2013-03-03 12:20:00,
2013-03-03 23:23:00,70.0,66.9,30.09,ESE,110,5.8,8.3,90,0.00,,SCT,0.19,VWS V13.01,2013-03-03 12:23:00,
2013-03-03 23:26:00,70.0,66.9,30.09,ENE,77,6.3,6.3,90,0.00,,SCT,0.19,VWS V13.01,2013-03-03 12:26:00,
2013-03-03 23:27:00,70.0,66.9,30.09,ENE,77,4.0,6.3,90,0.00,,SCT,0.19,VWS V13.01,2013-03-03 12:27:00,
2013-03-03 23:28:00,70.0,66.9,30.09,East,86,6.3,7.6,90,0.00,,SCT,0.19,VWS V13.01,2013-03-03 12:28:00,
2013-03-03 23:31:00,70.0,66.9,30.09,ESE,110,5.8,6.3,90,0.00,,SCT,0.19,VWS V13.01,2013-03-03 12:31:00,
2013-03-03 23:32:00,70.0,66.9,30.09,East,90,5.8,8.1,90,0.00,,SCT,0.19,VWS V13.01,2013-03-03 12:32:00,
2013-03-03 23:35:00,70.0,66.9,30.09,East,80,4.0,6.3,90,0.00,,SCT,0.19,VWS V13.01,2013-03-03 12:35:00,
2013-03-03 23:36:00,70.0,66.9,30.09,East,99,5.4,7.2,90,0.00,,SCT,0.19,VWS V13.01,2013-03-03 12:36:00,
2013-03-03 23:37:00,70.0,66.9,30.09,East,85,5.4,5.8,90,0.00,,SCT,0.19,VWS V13.01,2013-03-03 12:37:00,
2013-03-03 23:41:00,70.0,66.9,30.09,ESE,118,6.3,8.3,90,0.00,,SCT,0.19,VWS V13.01,2013-03-03 12:41:00,
2013-03-03 23:44:00,69.8,66.7,30.09,ESE,117,7.6,7.6,90,0.00,,SCT,0.19,VWS V13.01,2013-03-03 12:44:00,
2013-03-03 23:47:00,69.8,66.7,30.09,ESE,108,5.4,5.8,90,0.00,,SCT,0.19,VWS V13.01,2013-03-03 12:47:00,
2013-03-03 23:49:00,69.8,66.7,30.09,ENE,76,4.9,6.7,90,0.00,,SCT,0.19,VWS V13.01,2013-03-03 12:49:00,
2013-03-03 23:52:00,69.8,66.7,30.09,ESE,108,7.6,7.6,90,0.00,,SCT,0.19,VWS V13.01,2013-03-03 12:52:00,
2013-03-03 23:53:00,69.8,66.7,30.09,NE,50,3.6,7.6,90,0.00,,SCT,0.19,VWS V13.01,2013-03-03 12:53:00,
2013-03-03 23:54:00,69.8,66.7,30.09,East,99,4.9,5.4,90,0.00,,SCT,0.19,VWS V13.01,2013-03-03 12:54:00,
2013-03-03 23:58:00,69.8,66.7,30.09,East,93,8.1,8.1,90,0.00,,SCT,0.19,VWS V13.01,2013-03-03 12:58:00,
2013-03-03 23:59:00,69.6,66.9,30.09,East,90,6.3,8.1,91,0.00,,SCT,0.19,VWS V13.01,2013-03-03 12:59:00,